Powrót do katalogu

STARLINK-32409

AktywnyŁącznośćVLEO
NORAD 61591·PAYLOAD·🇺🇸 United States

Wystrzelony Oct 18, 2024 z Cape Canaveral Space Force Station

Loading…

Następne Przeloty (najbliższe 24 godziny)

TLE

ŚwieżeSource: CelesTrak SupGP

Epoka: Sep 14, 2026, 22:40 UTC

1 61591C 24187T   26257.94493056  .00033290  00000+0  98345-3 0  2571
2 61591  53.1580 247.6176 0001291  94.4502  53.6496 15.34377007    17

Śledź STARLINK-32409 w czasie rzeczywistym z AllMySat

Download on the App Store